Location: Newark
(45.8667°N, 9.7333°E)
Time: 02:38:04
(UTC+00:00)

Courier 1B - Visible Passes

Search period start: 26 January 2020 00:00
Search period end: 05 February 2020 00:00
Orbit: 962 x 1209 km, 28.3° (Epoch: 25 January)

Date Brightness Start Highest point End Pass type
(mag) Time Alt. Az. Time Alt. Az. Time Alt. Az.
26 Jan 10.0 02:41:06 13° SE 02:41:06 13° SE 02:42:17 10° SE visible
26 Jan 9.4 04:28:00 16° SSW 04:30:34 19° S 04:35:44 10° SE visible
27 Jan 9.5 03:37:35 19° S 03:37:35 19° S 03:42:07 10° SE visible
27 Jan 9.8 05:26:00 10° SW 05:29:57 15° SSW 05:33:59 10° SSE visible
28 Jan 10.0 02:47:11 13° SE 02:47:11 13° SE 02:48:21 10° SE visible
28 Jan 9.5 04:34:05 15° SSW 04:36:23 17° SSW 04:40:53 10° SSE visible
29 Jan 9.5 03:43:41 17° S 03:43:41 17° S 03:47:33 10° SSE visible
29 Jan 9.9 05:34:41 10° SSW 05:35:42 10° SSW 05:36:42 10° SSW visible
30 Jan 10.0 02:53:18 12° SSE 02:53:18 12° SSE 02:54:02 10° SE visible
30 Jan 9.7 04:40:12 11° SW 04:42:10 12° SSW 04:45:05 10° S visible
31 Jan 9.7 03:49:50 14° S 03:49:50 14° S 03:52:19 10° SSE visible
